QPF
0.00 0.00 0.00 0.00 0.00 0.00 0.00 0.00 0.00 0.00 0.00 0.00 0.00 0.00 0.01 0.02 0.03 0.04 0.06 0.10 0.14 0.16 0.18 0.16 0.14 0.13 0.14 0.14 0.17 0.20 0.23 0.22 0.22 0.23 0.17 0.13 0.09 0.06 0.03 0.02 0.01 0.01 0.01
0.00 0.00 0.00 0.00 0.00 0.00 0.00 0.00 0.00 0.00 0.00 0.00 0.00 0.01 0.02 0.04 0.06 0.09 0.14 0.24 0.35 0.35 0.30 0.25 0.22 0.21 0.20 0.20 0.22 0.22 0.21 0.16 0.13 0.13 0.09 0.05 0.03 0.02 0.01 0.01 0.00 0.00 0.00
0.00 0.00 0.00 0.00 0.00 0.00 0.00 0.00 0.00 0.00 0.00 0.00 0.01 0.02 0.05 0.09 0.11 0.15 0.23 0.37 0.45 0.43 0.41 0.34 0.29 0.25 0.22 0.22 0.22 0.20 0.13 0.07 0.06 0.05 0.03 0.01 0.01 0.00 0.00 0.00 0.00 0.00 0.00
0.01 0.00 0.00 0.00 0.00 0.00 0.00 0.00 0.00 0.00 0.00 0.00 0.01 0.04 0.08 0.12 0.16 0.22 0.29 0.35 0.40 0.39 0.38 0.32 0.26 0.22 0.19 0.17 0.15 0.12 0.06 0.03 0.02 0.01 0.01 0.01 0.00 0.00 0.00 0.00 0.00 0.00 0.00
0.00 0.00 0.00 0.01 0.01 0.00 0.00 0.00 0.00 0.00 0.00 0.00 0.01 0.02 0.05 0.10 0.16 0.25 0.33 0.38 0.38 0.36 0.30 0.19 0.16 0.14 0.13 0.10 0.08 0.05 0.03 0.02 0.01 0.00 0.00 0.00 0.00 0.00 0.00 0.00 0.00 0.00 0.00
0.00 0.00 0.01 0.01 0.01 0.01 0.00 0.00 0.00 0.00 0.00 0.00 0.00 0.01 0.02 0.03 0.06 0.11 0.19 0.25 0.23 0.22 0.17 0.10 0.07 0.07 0.06 0.05 0.04 0.02 0.01 0.01 0.00 0.00 0.00 0.00 0.00 0.00 0.00 0.00 0.00 0.00 0.00
0.00 0.01 0.02 0.02 0.03 0.02 0.02 0.01 0.00 0.00 0.00 0.00 0.00 0.00 0.01 0.02 0.03 0.04 0.07 0.09 0.08 0.07 0.05 0.04 0.02 0.02 0.02 0.02 0.01 0.00 0.00 0.00 0.00 0.00 0.00 0.00 0.00 0.00 0.00 0.00 0.00 0.00 0.00
0.01 0.03 0.04 0.05 0.06 0.05 0.04 0.02 0.01 0.00 0.00 0.00 0.00 0.00 0.00 0.01 0.01 0.02 0.02 0.02 0.02 0.02 0.01 0.01 0.00 0.00 0.00 0.00 0.00 0.00 0.00 0.00 0.00 0.00 0.00 0.00 0.00 0.00 0.00 0.00 0.00 0.00 0.00
0.02 0.05 0.07 0.09 0.10 0.09 0.07 0.05 0.03 0.01 0.00 0.00 0.00 0.00 0.00 0.00 0.00 0.00 0.01 0.01 0.00 0.01 0.01 0.00 0.00 0.00 0.00 0.00 0.00 0.00 0.00 0.00 0.00 0.00 0.00 0.00 0.00 0.00 0.00 0.00 0.00 0.00 0.00
0.02 0.05 0.09 0.12 0.14 0.14 0.13 0.11 0.07 0.03 0.01 0.00 0.00 0.00 0.00 0.00 0.00 0.00 0.00 0.00 0.00 0.00 0.00 0.00 0.00 0.00 0.00 0.00 0.00 0.00 0.00 0.00 0.00 0.00 0.00 0.00 0.00 0.00 0.00 0.00 0.00 0.00 0.00
0.02 0.04 0.08 0.12 0.15 0.18 0.20 0.19 0.14 0.06 0.02 0.00 0.00 0.00 0.00 0.00 0.00 0.00 0.00 0.00 0.00 0.00 0.00 0.00 0.00 0.00 0.00 0.00 0.00 0.00 0.00 0.00 0.00 0.00 0.00 0.00 0.00 0.00 0.00 0.00 0.00 0.00 0.00
0.02 0.04 0.08 0.12 0.17 0.21 0.25 0.26 0.21 0.12 0.04 0.01 0.00 0.00 0.00 0.00 0.00 0.00 0.00 0.00 0.00 0.00 0.00 0.00 0.00 0.00 0.00 0.00 0.00 0.00 0.00 0.00 0.00 0.00 0.00 0.00 0.00 0.00 0.00 0.00 0.00 0.00 0.00
0.01 0.03 0.07 0.13 0.20 0.26 0.33 0.36 0.31 0.19 0.08 0.02 0.00 0.00 0.00 0.00 0.00 0.00 0.00 0.00 0.00 0.00 0.00 0.00 0.00 0.00 0.00 0.00 0.00 0.00 0.00 0.00 0.00 0.00 0.00 0.00 0.00 0.00 0.00 0.00 0.00 0.00 0.00
0.01 0.02 0.06 0.12 0.19 0.27 0.36 0.44 0.42 0.27 0.11 0.03 0.00 0.00 0.00 0.00 0.00 0.00 0.00 0.00 0.00 0.00 0.00 0.00 0.00 0.00 0.00 0.00 0.00 0.00 0.00 0.00 0.00 0.00 0.00 0.00 0.00 0.00 0.00 0.00 0.00 0.00 0.00
0.02 0.03 0.05 0.11 0.21 0.31 0.38 0.44 0.44 0.32 0.16 0.05 0.01 0.00 0.00 0.00 0.00 0.00 0.00 0.00 0.00 0.00 0.00 0.00 0.00 0.00 0.00 0.00 0.00 0.00 0.00 0.00 0.00 0.00 0.00 0.00 0.00 0.00 0.00 0.00 0.00 0.00 0.00
0.02 0.03 0.05 0.11 0.20 0.32 0.41 0.45 0.42 0.37 0.23 0.10 0.03 0.01 0.00 0.00 0.00 0.00 0.00 0.00 0.00 0.00 0.00 0.00 0.00 0.00 0.00 0.00 0.00 0.00 0.00 0.00 0.00 0.00 0.00 0.00 0.00 0.00 0.00 0.00 0.00 0.00 0.00
0.02 0.03 0.05 0.11 0.20 0.31 0.40 0.47 0.46 0.35 0.24 0.14 0.06 0.02 0.00 0.00 0.00 0.00 0.00 0.00 0.00 0.00 0.00 0.00 0.00 0.00 0.00 0.00 0.00 0.00 0.00 0.00 0.00 0.00 0.00 0.00 0.00 0.00 0.00 0.00 0.00 0.00 0.00
0.02 0.04 0.06 0.10 0.18 0.29 0.38 0.42 0.45 0.37 0.22 0.13 0.07 0.03 0.01 0.00 0.00 0.00 0.00 0.00 0.00 0.00 0.00 0.00 0.00 0.00 0.00 0.00 0.00 0.00 0.00 0.00 0.00 0.00 0.00 0.00 0.00 0.00 0.00 0.00 0.00 0.00 0.00
0.01 0.02 0.05 0.10 0.17 0.24 0.33 0.38 0.39 0.34 0.22 0.15 0.08 0.03 0.01 0.01 0.01 0.00 0.00 0.00 0.00 0.00 0.00 0.00 0.00 0.00 0.00 0.00 0.00 0.00 0.00 0.00 0.00 0.00 0.00 0.00 0.00 0.00 0.00 0.00 0.00 0.00 0.00
0.01 0.01 0.04 0.08 0.15 0.22 0.30 0.35 0.33 0.27 0.19 0.14 0.10 0.03 0.00 0.00 0.00 0.00 0.00 0.00 0.00 0.00 0.00 0.00 0.00 0.00 0.00 0.00 0.00 0.00 0.00 0.00 0.00 0.00 0.00 0.00 0.00 0.00 0.00 0.00 0.00 0.00 0.00
0.00 0.01 0.02 0.07 0.12 0.19 0.26 0.31 0.29 0.20 0.13 0.10 0.07 0.03 0.01 0.00 0.00 0.00 0.00 0.00 0.00 0.00 0.00 0.00 0.00 0.00 0.00 0.00 0.00 0.00 0.00 0.00 0.00 0.00 0.00 0.00 0.00 0.00 0.00 0.00 0.00 0.00 0.00
0.00 0.01 0.02 0.05 0.11 0.16 0.22 0.25 0.23 0.14 0.09 0.06 0.05 0.03 0.02 0.01 0.00 0.00 0.00 0.00 0.00 0.00 0.00 0.00 0.00 0.00 0.00 0.00 0.00 0.00 0.00 0.00 0.00 0.00 0.00 0.00 0.00 0.00 0.00 0.00 0.00 0.00 0.00
0.01 0.01 0.03 0.06 0.11 0.16 0.19 0.20 0.16 0.10 0.06 0.04 0.02 0.01 0.01 0.00 0.00 0.00 0.00 0.00 0.00 0.00 0.00 0.00 0.00 0.00 0.00 0.00 0.00 0.00 0.00 0.00 0.00 0.00 0.00 0.00 0.00 0.00 0.00 0.00 0.00 0.00 0.00
0.02 0.02 0.04 0.06 0.11 0.15 0.14 0.14 0.11 0.07 0.03 0.02 0.01 0.01 0.00 0.00 0.00 0.00 0.00 0.00 0.00 0.00 0.00 0.00 0.00 0.00 0.00 0.00 0.00 0.00 0.00 0.00 0.00 0.00 0.00 0.00 0.00 0.00 0.00 0.00 0.00 0.00 0.00
0.02 0.03 0.05 0.06 0.11 0.13 0.11 0.10 0.08 0.05 0.02 0.01 0.00 0.00 0.00 0.00 0.00 0.00 0.00 0.00 0.00 0.00 0.00 0.00 0.00 0.00 0.00 0.00 0.00 0.00 0.00 0.00 0.00 0.00 0.00 0.00 0.00 0.00 0.00 0.00 0.00 0.00 0.00
0.03 0.05 0.07 0.09 0.10 0.11 0.10 0.08 0.06 0.03 0.02 0.01 0.00 0.00 0.00 0.00 0.00 0.00 0.00 0.00 0.00 0.00 0.00 0.00 0.00 0.00 0.00 0.00 0.00 0.00 0.00 0.00 0.00 0.00 0.00 0.00 0.00 0.00 0.00 0.00 0.00 0.00 0.00
MSLP
1010.57 1010.42 1010.30 1010.20 1010.10 1010.01 1009.90 1009.77 1009.60 1009.36 1009.05 1008.64 1008.11 1007.49 1006.78 1006.04 1005.29 1004.60 1004.01 1003.56 1003.28 1003.14 1003.16 1003.29 1003.50 1003.77 1004.08 1004.42 1004.79 1005.18 1005.60 1006.05 1006.52 1006.98 1007.41 1007.78 1008.06 1008.23 1008.31 1008.29 1008.22 1008.12 1008.03
1010.61 1010.33 1010.09 1009.88 1009.70 1009.55 1009.41 1009.28 1009.14 1008.95 1008.69 1008.35 1007.90 1007.35 1006.71 1006.03 1005.34 1004.69 1004.14 1003.72 1003.44 1003.32 1003.32 1003.44 1003.64 1003.90 1004.19 1004.52 1004.88 1005.27 1005.71 1006.18 1006.68 1007.18 1007.66 1008.08 1008.42 1008.65 1008.78 1008.81 1008.78 1008.71 1008.64
1010.66 1010.26 1009.90 1009.58 1009.31 1009.09 1008.93 1008.79 1008.68 1008.55 1008.37 1008.12 1007.78 1007.33 1006.81 1006.22 1005.63 1005.06 1004.57 1004.19 1003.94 1003.82 1003.82 1003.92 1004.09 1004.32 1004.59 1004.88 1005.22 1005.59 1006.01 1006.48 1006.98 1007.49 1007.99 1008.44 1008.81 1009.08 1009.25 1009.32 1009.33 1009.29 1009.24
1010.65 1010.15 1009.68 1009.26 1008.91 1008.63 1008.43 1008.31 1008.22 1008.16 1008.08 1007.94 1007.73 1007.42 1007.03 1006.58 1006.10 1005.63 1005.22 1004.89 1004.67 1004.56 1004.56 1004.63 1004.78 1004.96 1005.19 1005.44 1005.74 1006.08 1006.47 1006.91 1007.39 1007.88 1008.38 1008.82 1009.20 1009.49 1009.69 1009.79 1009.82 1009.81 1009.78
1010.55 1009.97 1009.41 1008.91 1008.48 1008.15 1007.93 1007.81 1007.76 1007.77 1007.79 1007.77 1007.70 1007.54 1007.30 1007.00 1006.65 1006.29 1005.97 1005.71 1005.52 1005.43 1005.41 1005.46 1005.57 1005.72 1005.89 1006.11 1006.36 1006.66 1007.01 1007.41 1007.85 1008.32 1008.78 1009.21 1009.58 1009.87 1010.07 1010.19 1010.24 1010.24 1010.23
1010.35 1009.70 1009.07 1008.50 1008.02 1007.65 1007.40 1007.29 1007.28 1007.35 1007.46 1007.56 1007.62 1007.61 1007.53 1007.37 1007.16 1006.92 1006.70 1006.50 1006.36 1006.28 1006.26 1006.29 1006.36 1006.47 1006.61 1006.79 1007.00 1007.26 1007.57 1007.93 1008.33 1008.76 1009.18 1009.58 1009.92 1010.20 1010.39 1010.51 1010.57 1010.58 1010.58
1010.03 1009.34 1008.67 1008.05 1007.52 1007.12 1006.86 1006.74 1006.75 1006.87 1007.05 1007.25 1007.43 1007.55 1007.61 1007.59 1007.52 1007.40 1007.27 1007.15 1007.06 1007.00 1006.99 1007.01 1007.07 1007.15 1007.27 1007.42 1007.60 1007.83 1008.11 1008.44 1008.80 1009.19 1009.57 1009.93 1010.24 1010.48 1010.66 1010.77 1010.83 1010.86 1010.86
1009.62 1008.92 1008.22 1007.57 1007.01 1006.58 1006.29 1006.16 1006.18 1006.31 1006.54 1006.80 1007.07 1007.30 1007.48 1007.60 1007.65 1007.66 1007.63 1007.59 1007.56 1007.55 1007.55 1007.58 1007.64 1007.72 1007.83 1007.97 1008.14 1008.36 1008.62 1008.92 1009.26 1009.61 1009.95 1010.27 1010.54 1010.76 1010.91 1011.01 1011.07 1011.10 1011.11
1009.15 1008.45 1007.75 1007.09 1006.51 1006.05 1005.73 1005.57 1005.56 1005.69 1005.91 1006.21 1006.54 1006.85 1007.14 1007.37 1007.54 1007.67 1007.76 1007.82 1007.86 1007.90 1007.95 1008.01 1008.09 1008.18 1008.30 1008.45 1008.63 1008.85 1009.11 1009.40 1009.72 1010.04 1010.35 1010.63 1010.87 1011.06 1011.19 1011.28 1011.33 1011.36 1011.38
1008.63 1007.95 1007.27 1006.61 1006.02 1005.53 1005.18 1004.97 1004.91 1005.00 1005.20 1005.50 1005.86 1006.23 1006.60 1006.94 1007.23 1007.48 1007.69 1007.86 1008.00 1008.13 1008.24 1008.35 1008.46 1008.58 1008.73 1008.90 1009.10 1009.34 1009.61 1009.90 1010.21 1010.51 1010.80 1011.05 1011.26 1011.42 1011.53 1011.61 1011.65 1011.68 1011.70
1008.06 1007.43 1006.78 1006.14 1005.55 1005.03 1004.63 1004.36 1004.24 1004.27 1004.43 1004.71 1005.07 1005.49 1005.93 1006.37 1006.79 1007.17 1007.51 1007.80 1008.06 1008.27 1008.46 1008.64 1008.80 1008.97 1009.15 1009.35 1009.58 1009.84 1010.12 1010.43 1010.73 1011.03 1011.30 1011.54 1011.72 1011.86 1011.95 1012.01 1012.04 1012.07 1012.09
1007.42 1006.86 1006.26 1005.65 1005.07 1004.54 1004.09 1003.77 1003.58 1003.54 1003.65 1003.89 1004.25 1004.71 1005.21 1005.75 1006.29 1006.81 1007.29 1007.71 1008.09 1008.41 1008.69 1008.93 1009.15 1009.36 1009.57 1009.81 1010.07 1010.35 1010.66 1010.97 1011.29 1011.58 1011.85 1012.07 1012.23 1012.35 1012.43 1012.47 1012.50 1012.52 1012.54
1006.70 1006.21 1005.68 1005.12 1004.56 1004.02 1003.54 1003.17 1002.92 1002.81 1002.87 1003.09 1003.45 1003.94 1004.52 1005.15 1005.81 1006.46 1007.08 1007.64 1008.13 1008.56 1008.92 1009.23 1009.50 1009.75 1010.00 1010.27 1010.55 1010.86 1011.18 1011.51 1011.83 1012.13 1012.39 1012.60 1012.76 1012.86 1012.93 1012.96 1012.97 1012.98 1013.00
1005.86 1005.47 1005.02 1004.52 1003.99 1003.46 1002.96 1002.55 1002.26 1002.11 1002.14 1002.34 1002.71 1003.24 1003.89 1004.62 1005.40 1006.17 1006.91 1007.59 1008.20 1008.71 1009.15 1009.51 1009.83 1010.12 1010.39 1010.67 1010.98 1011.30 1011.64 1011.98 1012.31 1012.62 1012.88 1013.09 1013.24 1013.34 1013.39 1013.42 1013.43 1013.43 1013.44
1004.91 1004.62 1004.25 1003.82 1003.34 1002.83 1002.34 1001.92 1001.60 1001.44 1001.45 1001.65 1002.05 1002.63 1003.35 1004.16 1005.04 1005.92 1006.77 1007.55 1008.24 1008.83 1009.32 1009.73 1010.07 1010.38 1010.67 1010.97 1011.29 1011.63 1011.98 1012.34 1012.68 1012.99 1013.26 1013.47 1013.63 1013.72 1013.78 1013.80 1013.81 1013.81 1013.81
1003.88 1003.68 1003.40 1003.03 1002.60 1002.13 1001.67 1001.25 1000.94 1000.78 1000.80 1001.03 1001.47 1002.09 1002.87 1003.77 1004.72 1005.68 1006.61 1007.46 1008.20 1008.84 1009.36 1009.80 1010.16 1010.48 1010.79 1011.10 1011.43 1011.78 1012.16 1012.53 1012.89 1013.22 1013.50 1013.72 1013.89 1013.99 1014.05 1014.08 1014.09 1014.10 1014.11
1002.82 1002.70 1002.49 1002.19 1001.81 1001.38 1000.95 1000.56 1000.28 1000.14 1000.19 1000.45 1000.93 1001.60 1002.44 1003.38 1004.39 1005.41 1006.38 1007.26 1008.04 1008.69 1009.23 1009.68 1010.05 1010.39 1010.71 1011.04 1011.39 1011.76 1012.16 1012.56 1012.94 1013.29 1013.59 1013.83 1014.01 1014.14 1014.21 1014.26 1014.28 1014.30 1014.32
1001.80 1001.74 1001.58 1001.33 1000.99 1000.60 1000.21 999.86 999.62 999.52 999.61 999.91 1000.43 1001.14 1002.01 1002.99 1004.02 1005.06 1006.04 1006.93 1007.71 1008.37 1008.91 1009.36 1009.75 1010.09 1010.43 1010.79 1011.17 1011.58 1012.00 1012.43 1012.85 1013.23 1013.55 1013.82 1014.02 1014.17 1014.27 1014.34 1014.39 1014.44 1014.48
1000.88 1000.85 1000.72 1000.50 1000.19 999.84 999.48 999.17 998.97 998.91 999.05 999.39 999.94 1000.68 1001.57 1002.56 1003.59 1004.62 1005.59 1006.47 1007.23 1007.88 1008.41 1008.87 1009.26 1009.63 1010.00 1010.39 1010.81 1011.26 1011.73 1012.19 1012.64 1013.06 1013.41 1013.71 1013.94 1014.11 1014.25 1014.35 1014.43 1014.51 1014.58
1000.11 1000.08 999.95 999.74 999.44 999.11 998.78 998.51 998.35 998.34 998.52 998.90 999.48 1000.24 1001.13 1002.11 1003.12 1004.12 1005.06 1005.90 1006.64 1007.27 1007.80 1008.26 1008.67 1009.07 1009.48 1009.91 1010.37 1010.87 1011.38 1011.88 1012.37 1012.81 1013.20 1013.52 1013.78 1013.99 1014.15 1014.29 1014.41 1014.53 1014.64
999.47 999.42 999.28 999.06 998.76 998.44 998.14 997.91 997.79 997.82 998.04 998.46 999.06 999.82 1000.70 1001.66 1002.64 1003.60 1004.49 1005.30 1006.01 1006.61 1007.14 1007.60 1008.04 1008.47 1008.92 1009.39 1009.91 1010.44 1010.99 1011.53 1012.04 1012.51 1012.92 1013.27 1013.55 1013.79 1013.99 1014.16 1014.33 1014.49 1014.64
998.94 998.86 998.70 998.45 998.16 997.84 997.57 997.37 997.29 997.37 997.63 998.08 998.70 999.46 1000.33 1001.26 1002.20 1003.11 1003.96 1004.72 1005.39 1005.98 1006.50 1006.98 1007.43 1007.90 1008.38 1008.90 1009.44 1010.01 1010.59 1011.15 1011.67 1012.15 1012.58 1012.94 1013.24 1013.50 1013.73 1013.94 1014.14 1014.34 1014.54
998.47 998.35 998.16 997.90 997.60 997.30 997.06 996.90 996.87 997.00 997.31 997.79 998.43 999.19 1000.04 1000.94 1001.84 1002.70 1003.51 1004.23 1004.87 1005.43 1005.95 1006.43 1006.90 1007.38 1007.89 1008.43 1009.00 1009.58 1010.16 1010.72 1011.25 1011.72 1012.14 1012.50 1012.81 1013.09 1013.34 1013.57 1013.81 1014.05 1014.30
997.98 997.83 997.62 997.36 997.07 996.80 996.60 996.50 996.53 996.72 997.07 997.59 998.25 999.01 999.85 1000.72 1001.58 1002.40 1003.15 1003.83 1004.44 1004.98 1005.48 1005.96 1006.44 1006.93 1007.44 1007.99 1008.55 1009.13 1009.69 1010.24 1010.74 1011.19 1011.59 1011.94 1012.25 1012.53 1012.79 1013.05 1013.32 1013.60 1013.89
997.42 997.26 997.05 996.80 996.54 996.33 996.18 996.15 996.25 996.50 996.91 997.47 998.15 998.92 999.74 1000.58 1001.40 1002.18 1002.89 1003.53 1004.10 1004.61 1005.09 1005.56 1006.03 1006.51 1007.01 1007.54 1008.08 1008.63 1009.16 1009.67 1010.13 1010.55 1010.92 1011.25 1011.54 1011.82 1012.09 1012.38 1012.67 1012.99 1013.31
996.77 996.62 996.42 996.21 996.01 995.86 995.79 995.84 996.02 996.35 996.82 997.41 998.11 998.88 999.69 1000.50 1001.28 1002.00 1002.67 1003.26 1003.79 1004.28 1004.73 1005.18 1005.62 1006.08 1006.56 1007.05 1007.56 1008.06 1008.55 1009.00 1009.42 1009.80 1010.13 1010.43 1010.71 1010.99 1011.27 1011.57 1011.89 1012.24 1012.60
Thickness
5680 5679 5677 5675 5673 5670 5667 5665 5661 5658 5655 5653 5652 5652 5653 5655 5657 5659 5662 5665 5666 5667 5668 5668 5668 5668 5667 5668 5668 5667 5667 5667 5661 5656 5656 5657 5658 5659 5660 5662 5665 5666 5667
5670 5670 5670 5669 5667 5664 5662 5660 5656 5653 5650 5647 5645 5645 5646 5647 5649 5651 5653 5655 5656 5657 5657 5658 5658 5659 5658 5659 5659 5658 5657 5657 5654 5648 5645 5645 5646 5648 5650 5651 5653 5655 5656
5659 5661 5662 5662 5661 5660 5658 5655 5651 5648 5645 5642 5640 5639 5638 5639 5640 5642 5643 5644 5645 5645 5646 5647 5648 5648 5648 5649 5649 5647 5646 5645 5645 5642 5636 5636 5638 5639 5641 5642 5643 5645 5647
5647 5650 5653 5655 5656 5655 5653 5650 5646 5643 5640 5637 5634 5633 5631 5631 5631 5633 5633 5633 5632 5633 5634 5636 5637 5638 5638 5638 5637 5636 5636 5635 5634 5633 5631 5630 5630 5631 5633 5633 5634 5636 5637
5632 5636 5641 5646 5649 5649 5647 5645 5641 5638 5635 5632 5629 5627 5625 5625 5624 5623 5624 5623 5623 5622 5623 5624 5626 5627 5628 5629 5629 5627 5628 5627 5626 5625 5624 5623 5622 5624 5624 5626 5627 5628 5629
5616 5620 5627 5633 5638 5640 5640 5638 5636 5633 5630 5627 5623 5621 5619 5618 5616 5616 5616 5615 5614 5613 5613 5613 5615 5616 5618 5619 5620 5620 5621 5621 5619 5619 5617 5617 5615 5617 5618 5620 5621 5624 5623
5599 5604 5609 5616 5623 5628 5630 5630 5628 5627 5624 5621 5618 5616 5613 5611 5610 5609 5608 5608 5606 5605 5605 5606 5607 5607 5609 5610 5610 5611 5611 5612 5614 5614 5613 5611 5611 5613 5614 5615 5614 5614 5612
5580 5584 5589 5596 5603 5610 5616 5619 5620 5619 5617 5615 5613 5611 5608 5606 5604 5603 5602 5600 5598 5597 5598 5599 5600 5600 5601 5603 5604 5603 5602 5603 5605 5608 5608 5606 5607 5608 5609 5608 5607 5606 5605
5559 5563 5568 5574 5581 5590 5598 5605 5609 5610 5610 5609 5608 5606 5604 5601 5599 5598 5597 5594 5592 5590 5591 5593 5595 5595 5596 5598 5599 5597 5596 5596 5597 5600 5601 5600 5601 5602 5603 5604 5602 5603 5599
5539 5543 5547 5551 5558 5568 5579 5589 5596 5600 5603 5603 5601 5600 5599 5597 5594 5593 5592 5590 5587 5585 5585 5586 5589 5591 5592 5594 5595 5595 5592 5590 5592 5594 5594 5594 5595 5595 5596 5597 5596 5595 5593
5525 5528 5531 5535 5540 5549 5561 5573 5584 5590 5594 5595 5595 5594 5593 5593 5590 5588 5588 5587 5585 5582 5582 5581 5582 5585 5587 5588 5590 5591 5589 5587 5588 5589 5588 5587 5587 5587 5587 5586 5586 5587 5586
5513 5516 5520 5523 5527 5535 5544 5558 5572 5581 5586 5588 5587 5586 5586 5587 5586 5585 5584 5583 5582 5580 5578 5577 5578 5580 5582 5583 5584 5583 5583 5584 5584 5584 5582 5581 5580 5579 5578 5577 5577 5576 5574
5504 5507 5510 5512 5514 5520 5530 5544 5560 5573 5580 5583 5584 5584 5582 5581 5581 5580 5579 5578 5577 5576 5574 5574 5574 5576 5577 5578 5577 5578 5579 5580 5580 5578 5576 5573 5571 5571 5571 5571 5570 5569 5568
5497 5500 5501 5503 5506 5511 5520 5534 5549 5564 5575 5580 5582 5583 5581 5578 5578 5577 5575 5573 5572 5571 5570 5569 5570 5571 5572 5572 5572 5573 5573 5573 5573 5571 5568 5566 5566 5566 5565 5564 5564 5563 5562
5490 5492 5494 5496 5499 5504 5512 5526 5540 5556 5571 5580 5584 5585 5583 5580 5580 5579 5577 5573 5571 5570 5567 5566 5567 5567 5568 5567 5567 5567 5567 5567 5566 5564 5563 5562 5562 5561 5559 5557 5556 5556 5554
5482 5485 5487 5490 5494 5499 5507 5520 5536 5549 5563 5571 5580 5585 5585 5585 5579 5575 5575 5573 5569 5566 5567 5565 5564 5565 5566 5565 5565 5563 5562 5561 5561 5560 5559 5558 5558 5556 5554 5552 5550 5550 5547
5476 5479 5482 5486 5491 5497 5505 5516 5532 5548 5559 5565 5571 5576 5581 5579 5575 5573 5571 5568 5565 5565 5566 5564 5563 5563 5563 5562 5562 5561 5559 5557 5556 5556 5555 5554 5553 5552 5550 5548 5546 5545 5542
5471 5475 5479 5483 5488 5496 5505 5516 5530 5546 5558 5563 5564 5569 5572 5574 5572 5569 5566 5564 5560 5562 5566 5564 5563 5562 5561 5560 5559 5558 5556 5553 5552 5552 5551 5550 5549 5548 5547 5545 5543 5541 5538
5465 5471 5476 5481 5487 5496 5506 5517 5530 5546 5559 5565 5565 5564 5565 5566 5566 5565 5567 5572 5568 5565 5565 5564 5563 5562 5561 5560 5558 5556 5554 5552 5550 5548 5547 5546 5545 5545 5543 5541 5538 5533 5532
5461 5469 5476 5481 5489 5499 5509 5520 5534 5548 5559 5566 5569 5570 5564 5564 5563 5562 5568 5573 5572 5569 5566 5565 5563 5562 5561 5559 5557 5554 5552 5549 5547 5546 5545 5543 5542 5541 5540 5537 5535 5532 5528
5459 5467 5477 5484 5493 5502 5513 5525 5538 5551 5561 5568 5572 5573 5571 5575 5574 5571 5571 5573 5573 5571 5568 5566 5564 5562 5560 5558 5556 5553 5551 5549 5546 5544 5542 5540 5539 5537 5535 5533 5530 5527 5524
5459 5467 5476 5486 5496 5507 5517 5530 5543 5556 5565 5570 5572 5568 5567 5576 5577 5575 5575 5575 5575 5574 5571 5568 5566 5564 5562 5560 5557 5553 5551 5548 5545 5543 5540 5538 5536 5534 5531 5528 5525 5522 5519
5462 5471 5481 5491 5502 5513 5524 5537 5549 5559 5566 5571 5572 5571 5571 5578 5579 5578 5578 5578 5576 5574 5571 5569 5567 5564 5562 5560 5558 5555 5552 5549 5547 5544 5540 5537 5534 5531 5528 5525 5522 5518 5515
5469 5479 5489 5500 5512 5522 5534 5545 5555 5562 5568 5572 5574 5575 5576 5579 5580 5580 5579 5578 5576 5574 5572 5569 5568 5566 5563 5560 5557 5554 5553 5550 5547 5543 5540 5538 5534 5531 5527 5523 5520 5516 5513
5478 5488 5499 5510 5521 5532 5542 5552 5560 5566 5571 5574 5576 5577 5579 5580 5581 5581 5580 5578 5576 5574 5572 5569 5567 5565 5563 5560 5557 5555 5553 5550 5546 5543 5539 5536 5533 5530 5526 5522 5518 5514 5510
5491 5501 5511 5522 5532 5541 5551 5559 5565 5570 5574 5576 5578 5579 5580 5581 5582 5581 5579 5578 5576 5574 5571 5569 5567 5565 5562 5560 5558 5556 5553 5549 5546 5542 5539 5535 5532 5529 5525 5522 5518 5513 5508